Location: Unspecified
(53.9216°N, 0.0000°E)
Time: 02:34:34
(UTC+00:00)

UWE-3 - Visible Passes

Search period start: 05 April 2026 00:00
Search period end: 15 April 2026 00:00
Orbit: 544 x 612 km, 97.9° (Epoch: 28 March)

Date Brightness Start Highest point End Pass type
(mag) Time Alt. Az. Time Alt. Az. Time Alt. Az.
5 Apr ? 02:21:47 10° NNE 02:25:31 32° E 02:26:52 26° SE visible
5 Apr ? 03:57:04 10° N 04:00:47 33° WNW 04:03:09 18° WSW visible
6 Apr ? 02:26:00 10° NNE 02:29:49 35° E 02:31:18 26° SE visible
6 Apr ? 04:01:24 10° N 04:05:02 31° WNW 04:07:36 16° WSW visible
7 Apr ? 02:30:14 10° NNE 02:34:06 38° E 02:35:43 26° SE visible
7 Apr ? 04:05:44 10° N 04:09:15 28° WNW 04:12:00 14° WSW visible
8 Apr ? 02:34:28 10° NNE 02:38:23 42° E 02:40:07 26° SSE visible
8 Apr ? 04:10:03 10° N 04:13:29 26° WNW 04:16:25 12° WSW visible
9 Apr ? 02:38:42 10° NNE 02:42:39 46° E 02:44:32 26° SSE visible
9 Apr ? 04:14:22 10° N 04:17:42 24° WNW 04:20:49 11° WSW visible
10 Apr ? 02:42:55 10° NNE 02:46:54 50° E 02:48:55 25° SSE visible
10 Apr ? 04:18:41 10° N 04:21:54 23° WNW 04:25:03 10° WSW visible
11 Apr ? 02:47:08 10° NNE 02:51:09 55° E 02:53:18 24° S visible
11 Apr ? 04:23:01 10° N 04:26:05 21° WNW 04:29:07 10° WSW visible
12 Apr ? 02:51:21 10° NNE 02:55:23 61° ESE 02:57:40 23° S visible
12 Apr ? 04:27:20 10° NNW 04:30:16 20° WNW 04:33:10 10° WSW visible
13 Apr ? 02:55:34 10° NNE 02:59:36 67° ESE 03:02:02 22° S visible
14 Apr ? 02:59:46 10° NNE 03:03:49 73° ESE 03:06:23 21° S visible
